STARLINK-33831, 63595

Orbit data source: Space-Track

STARLINK-33831, 63595 is a payload satellite owned by SpaceX/Seattle (US) in LEO that was launched on Mon, 14 Apr 2025 UTC via an FALCON 9 launch vehicle from the Air Force Eastern Test Range (AFETR). Payload-class satellites include a variety of spacecraft equipped with specific instruments for various scientific and technological missions. These include communications satellites like Starlink; space stations such as the ISS; scientific satellites like the Hubble; Earth observation satellites from companies like Planet Labs, Umbra, and HawkEye 360; GPS; miniature CubeSats for education and research; and military/defense satellites.

Loading next visibility...
Identifier
63595, 2025-076AC
Orbit
LEO
Last TLE update
13 hours ago
Origin
Manufacturer
SpaceX/Seattle
Mission
Operational Commercial Communications
Bus & Motor
STARLINK V2MO, Unknown motor
Mass
575 kg wet, ~530 kg dry
Launch date (UTC)
2025-04-14 (3 months ago)
Launch vehicle
FALCON 9
Launch site
Air Force Eastern Test Range (AFETR)
Object type
Payload
Rocket body
Debris
Shape & HBR
Box + 1 Pan, 14.5 m
Radar Cross Section
41.120 m², Large (>1 m²)

Expand to show TLE details & history

TLE from 13 hours ago
0 STARLINK-33831
1 63595U 25076AC  25199.42319417  .00022603  00000-0  82745-3 0  9997
2 63595  43.0055 204.5285 0003238 283.8451  76.2040 15.27614879 16006
Epoch: 2025-07-18T10:09Z
TLE epoch observation values (Epoch: 2025-07-18T10:09:23.976Z)
Latitude
-0.00004°
Longitude
115.70369°
Altitude
482.192 km
Speed
7.626 km/s
True Right ascension
13h 38m 06s
True Declination
0° 00' 00"
Sunlit
Object was in daylight at epoch
Visualization orbit readout
Latitude
-21.55302°
Longitude
-42.56263°
Altitude
487.244 km
Speed
7.623 km/s
Apparent Right ascension
01h 56m 21s
Apparent Declination
-31° 45' 52"
Sunlit
Object is in daylight
Visualization observer readout
Local Sidereal Time
12:25:47
Azimuth
286.948° WNW
Elevation
-69.99°
Doppler factor
1
Orbital elements
Apogee altitude
487.111 km
Perigee altitude
482.667 km
Semi-major axis
6,863.026 km
Eccentricity
0.00032
Inclination
43.0055°
RAAN
204.5285°
Arg. of periapsis
283.8451°
True anomaly
76.24004°
Mean anomaly
76.204°
Eccentric anomaly
76.22202°
Mean motion
3.81742 °/min
Orbital period
94.3 mins
BSTAR
0.00082745
Loading maneuver chart data...
Loading SW <> Apogee altitude chart data...
Loading historical data...
Loading historical data...
Loading historical data...
Loading historical data...
Loading historical data...
Loading historical data...
Loading historical data...
|